Location: Byhalia Creek
(34.8270°N, 89.8040°W)
Time: 07:39:53
(UTC+00:00)

Aureole 3 - Pass Details

Date: 22 April 2026
Orbit: 372 x 1024 km, 82.5° (Epoch: 15 May)

Event Time Altitude Azimuth Distance (km) Brightness Sun altitude
Rises 02:01:22 0° 354° (N) 3,207 7.7 -17.0°
Reaches altitude 10° 02:03:34 10° 356° (N) 2,370 7.0 -17.3°
Maximum altitude 02:09:02 81° 83° (E) 908 4.2 -18.3°
Enters shadow 02:14:04 17° 171° (S) 2,251 6.0 -19.2°
